This demonstration page uses our WeatherBlox Daily Observations layout. Learn more.

Left ArrowRight Arrow

39.92423, -83.80882

Hourly Observations for January 1, 2017

Temp ( °F °C ) Dew Point ( °F °C ) Humidity (%) Winds ( mph kmh ) Pressure ( in mb ) Visibility ( mi km ) Precip ( " mm )
12:56 am 00:56 Mostly Cloudy 32 0 27 -2.8 82 82 WNW 3 6 30 1016 10 16.0934 0 0
1:07 am 01:07 Cloudy 34 1 27 -3 75 75 WNW 3 6 30.03 1017 10 16.0934 0 0
1:35 am 01:35 Cloudy 34 1 28 -2 81 81 WNW 3 6 30.06 1018 10 16.0934 0 0
1:56 am 01:56 Cloudy 33 0.6 27 -2.8 78 78 N 3 6 30.03 1017 10 16.0934 0 0
2:32 am 02:32 Cloudy 34 1 27 -3 75 75 NW 3 6 30.06 1018 10 16.0934 0 0
2:56 am 02:56 Mostly Cloudy 32 0 26 -3.3 79 79 Calm 30.06 1018 10 16.0934 0 0
3:56 am 03:56 Mostly Clear 29 -1.7 26 -3.3 89 89 Calm 30.07 1018 10 16.0934 0 0
4:46 am 04:46 Mostly Cloudy 28 -2 25 -4 86 86 NNW 3 6 30.12 1020 10 16.0934 0 0
4:56 am 04:56 Cloudy 28 -2.2 26 -3.3 92 92 Calm 30.1 1019 10 16.0934 0 0
5:56 am 05:56 Partly Cloudy 27 -2.8 24 -4.4 89 89 NNE 3 6 30.11 1020 10 16.0934 0 0
6:06 am 06:06 Mostly Cloudy 27 -3 25 -4 93 93 N 5 7 30.15 1021 10 16.0934 0 0
6:56 am 06:56 Cloudy 29 -1.7 27 -2.8 92 92 Calm 30.14 1021 10 16.0934 0 0
7:56 am 07:56 Cloudy 27 -2.8 26 -3.3 96 96 E 5 7 30.15 1021 10 16.0934 0 0
8:44 am 08:44 Partly Cloudy 28 -2 27 -3 93 93 ENE 7 11 30.18 1022 10 16.0934 0 0
8:56 am 08:56 Sunny 30 -1.1 28 -2.2 92 92 ENE 3 6 30.16 1022 10 16.0934 0 0
9:56 am 09:56 Sunny 34 1.1 27 -2.8 76 76 ESE 6 9 30.18 1022 10 16.0934 0 0
10:56 am 10:56 Sunny 37 2.8 28 -2.2 70 70 SE 8 13 30.2 1023 10 16.0934 0 0
11:56 am 11:56 Sunny 41 5 32 0 70 70 SSE 7 11 30.19 1022 10 16.0934 0 0
12:56 pm 12:56 Sunny 42 5.6 32 0 68 68 S 6 9 30.18 1022 10 16.0934 0 0
1:56 pm 13:56 Sunny 44 6.7 33 0.6 65 65 SE 9 15 30.15 1021 10 16.0934 0 0
2:56 pm 14:56 Sunny 43 6.1 32 0 65 65 SE 7 11 30.14 1021 10 16.0934 0 0
3:56 pm 15:56 Sunny 43 6.1 32 0 65 65 ESE 9 15 30.15 1021 10 16.0934 0 0
4:56 pm 16:56 Sunny 40 4.4 33 0.6 77 77 E 6 9 30.17 1022 10 16.0934 0 0
5:56 pm 17:56 Clear 36 2.2 31 -0.6 82 82 E 7 11 30.17 1022 10 16.0934 0 0
6:56 pm 18:56 Cloudy 39 3.9 35 1.7 86 86 SW 16 26 29.83 1010 10 16.0934 0 0
7:56 pm 19:56 Clear 36 2.2 32 0 86 86 E 9 15 30.18 1022 10 16.0934 0 0
8:56 pm 20:56 Cloudy 39 3.9 34 1.1 82 82 E 8 13 30.17 1022 10 16.0934 0 0
9:56 pm 21:56 Cloudy 40 4.4 34 1.1 79 79 E 10 17 30.15 1021 10 16.0934 0 0
10:56 pm 22:56 Cloudy with Light Rain 40 4.4 36 2.2 86 86 E 9 15 30.15 1021 10 16.0934 0 0.0254
11:45 pm 23:45 Cloudy with Light Rain 39 4 37 3 93 93 E 10 17 30.15 1021 10 16.0934 0 0.0254
11:56 pm 23:56 Cloudy 40 4.4 37 2.8 89 89 E 13 20 30.13 1020 10 16.0934 0 0.0254

Powered by AerisWeather